WE0DX-1 Weather Reports


time (UTC)temp
F
wind
direction
speed
knots
gust
knots
rain 1hr
in
rain 24hr
in
rain mn
in
humidity
%
barometer
mb
20260505130204 47 48 0.0 1.7 0.00 0.10 0.10 88 1010.5
20260505124654 47 61 0.0 0.0 0.00 0.10 0.10 88 1010.1
20260505124151 47 58 0.0 0.0 0.07 0.10 0.10 88 1009.9
20260505123647 47 62 0.0 0.0 0.07 0.10 0.10 86 1010.0
20260505123144 47 55 0.0 0.0 0.12 0.09 0.09 85 1009.9
20260505122640 48 61 0.0 0.0 0.12 0.08 0.08 82 1009.5
20260505122138 48 60 0.0 0.0 0.12 0.07 0.07 79 1009.4
20260505121628 49 56 0.0 2.6 0.12 0.06 0.06 76 1008.9
20260505121125 50 43 1.7 1.7 0.12 0.05 0.05 70 1008.8
20260505120621 51 59 0.0 0.9 0.07 0.04 0.04 66 1009.2
20260505120117 52 62 0.0 0.0 0.00 0.03 0.03 62 1009.6
20260505115612 52 67 0.0 0.9 0.00 0.03 0.03 56 1009.6
20260505115110 53 60 0.0 2.6 0.00 0.03 0.03 54 1008.9
20260505114606 53 58 0.0 0.9 0.00 0.03 0.03 54 1009.3
20260505114103 53 75 0.0 0.9 0.00 0.03 0.03 54 1008.9
20260505113559 53 76 0.0 0.0 0.00 0.03 0.03 55 1008.9
20260505113056 53 66 0.0 0.0 0.00 0.03 0.03 54 1009.3
20260505112552 53 57 1.7 2.6 0.00 0.03 0.03 53 1009.0
20260505112050 53 58 0.0 1.7 0.00 0.03 0.03 54 1009.2
20260505111544 53 50 0.0 4.3 0.00 0.03 0.03 54 1008.8
20260505111041 53 46 1.7 4.3 0.00 0.03 0.03 54 1008.9
20260505110537 53 48 0.9 4.3 0.00 0.03 0.03 54 1008.9
20260505102010 52 47 0.9 2.6 0.00 0.03 0.03 61 1008.7
20260505101508 52 56 0.0 0.9 0.00 0.03 0.03 61 1009.3
20260505101004 52 46 0.9 0.9 0.00 0.03 0.03 61 1009.0
20260505100501 53 346 2.6 2.6 0.00 0.03 0.03 61 1009.3
20260505095958 53 55 0.0 0.9 0.00 0.03 0.03 61 1009.3
20260505095454 53 42 0.9 1.7 0.00 0.03 0.03 61 1009.3
20260505094950 53 53 0.0 1.7 0.00 0.03 0.03 61 1008.7
20260505094448 53 354 0.0 1.7 0.00 0.03 0.03 60 1009.4
20260505093943 53 53 0.0 0.9 0.00 0.03 0.03 60 1009.2
20260505093440 53 56 0.0 0.9 0.00 0.03 0.03 61 1009.2
20260505092937 53 41 0.9 1.7 0.00 0.03 0.03 60 1008.8
20260505092435 53 50 1.7 2.6 0.00 0.03 0.03 60 1008.3
20260505091933 53 47 1.7 5.2 0.00 0.03 0.03 60 1007.7
20260505091430 52 45 0.0 2.6 0.00 0.03 0.03 61 1007.8
20260505090928 52 51 0.9 2.6 0.00 0.03 0.03 62 1007.6
20260505090426 52 51 0.0 2.6 0.00 0.03 0.03 62 1007.5
20260505085923 52 320 1.7 2.6 0.00 0.03 0.03 64 1007.4
20260505085421 52 358 2.6 2.6 0.00 0.03 0.03 65 1007.5
20260505084919 52 53 0.0 1.7 0.00 0.03 0.03 66 1007.4
20260505084416 52 53 1.7 2.6 0.00 0.03 0.03 66 1007.3
20260505083914 52 46 1.7 4.3 0.00 0.03 0.03 66 1007.5
20260505083412 52 38 2.6 2.6 0.00 0.03 0.03 65 1007.4
20260505082908 52 28 1.7 1.7 0.00 0.03 0.03 65 1007.4
20260505082403 52 73 4.3 6.1 0.00 0.03 0.03 66 1007.0
20260505081901 52 50 0.9 4.3 0.00 0.03 0.03 66 1007.8
20260505081357 51 14 1.7 2.6 0.00 0.03 0.03 70 1008.1
20260505080854 51 66 0.0 0.9 0.00 0.03 0.03 72 1007.8
20260505080350 51 43 0.9 0.9 0.00 0.03 0.03 75 1008.1
20260505075846 51 57 2.6 4.3 0.00 0.03 0.03 72 1007.8
20260505075343 51 55 0.0 1.7 0.07 0.03 0.03 74 1008.0
20260505074840 51 48 1.7 4.3 0.07 0.03 0.03 74 1008.3
20260505074337 51 51 0.9 1.7 0.00 0.02 0.02 70 1009.0
20260505073834 51 51 0.9 1.7 0.05 0.02 0.02 69 1009.5
20260505073332 53 41 0.9 1.7 0.05 0.02 0.02 69 1009.0
20260505072829 54 53 0.0 0.0 0.07 0.01 0.01 72 1008.9
20260505072325 55 20 0.9 1.7 0.07 0.01 0.01 58 1008.7
20260505071821 57 5 3.5 4.3 0.00 0.00 0.00 49 1008.7
20260505071318 58 41 0.9 2.6 0.00 0.00 0.00 44 1008.5
20260505070816 59 313 3.5 6.1 0.00 0.00 0.00 41 1008.3
20260505070312 59 332 3.5 7.0 0.00 0.00 0.00 41 1008.1
20260505065807 59 47 0.9 4.3 0.00 0.00 0.00 42 1007.5
20260505065304 59 44 0.9 5.2 0.00 0.00 0.00 42 1007.0
20260505064802 59 53 2.6 4.3 0.00 0.00 0.00 41 1006.8
20260505064258 59 35 2.6 7.0 0.00 0.00 0.00 41 1006.5
20260505063756 59 351 3.5 6.1 0.00 0.00 0.00 41 1006.7
20260505063252 59 344 2.6 7.0 0.00 0.00 0.00 41 1006.7
20260505062749 60 324 4.3 7.8 0.00 0.00 0.00 40 1006.6
20260505062246 60 351 2.6 6.1 0.00 0.00 0.00 41 1006.5
20260505061743 60 345 4.3 7.0 0.00 0.00 0.00 40 1006.4
20260505061241 60 45 2.6 9.6 0.00 0.00 0.00 40 1006.2
20260505060738 61 335 6.1 7.8 0.00 0.00 0.00 40 1005.9
20260505060236 61 49 1.7 8.7 0.00 0.00 0.00 42 1006.2
20260505055730 62 344 3.5 11.3 0.00 0.00 0.00 42 1005.8
20260505055227 62 0 6.1 12.2 0.00 0.00 0.00 40 1005.4
20260505054725 63 39 4.3 6.1 0.00 0.00 0.00 40 1005.7
20260505054222 64 38 4.3 5.2 0.00 0.00 0.00 40 1005.7
20260505053720 64 351 2.6 7.0 0.00 0.00 0.00 39 1005.8
20260505053216 65 34 2.6 5.2 0.00 0.00 0.00 39 1005.5
20260505052714 66 357 2.6 4.3 0.00 0.00 0.00 39 1005.4
20260505052210 66 352 3.5 6.1 0.00 0.00 0.00 38 1005.1
20260505051708 67 331 9.6 13.0 0.00 0.00 0.00 37 1005.0
20260505051205 67 18 2.6 7.8 0.00 0.00 0.00 38 1005.1
20260505050703 67 48 2.6 4.3 0.00 0.00 0.00 38 1004.7
20260505050202 68 34 3.5 5.2 0.00 0.00 0.00 38 1005.0
20260505041636 70 53 0.0 5.2 0.00 0.00 0.00 37 1004.1
20260505041134 70 32 0.9 1.7 0.00 0.00 0.00 37 1003.9
20260505040630 70 48 1.7 4.3 0.00 0.00 0.00 37 1004.2
20260505040128 71 42 1.7 2.6 0.00 0.00 0.00 37 1003.6
20260505035624 71 32 1.7 7.0 0.00 0.00 0.00 38 1003.8
20260505035120 71 311 2.6 4.3 0.00 0.00 0.00 43 1003.6
20260505034617 71 349 2.6 6.1 0.00 0.00 0.00 44 1003.6
20260505034114 71 16 1.7 1.7 0.00 0.00 0.00 49 1003.6
20260505033611 71 288 4.3 6.1 0.00 0.00 0.00 51 1003.5
20260505033109 71 31 0.9 2.6 0.00 0.00 0.00 53 1003.4
20260505032607 70 51 0.0 0.9 0.00 0.00 0.00 56 1003.5
20260505032103 69 49 0.9 6.1 0.00 0.00 0.00 60 1003.4
20260505031600 72 114 0.9 1.7 0.00 0.00 0.00 58 1002.9
20260505031056 71 114 0.0 0.0 0.00 0.00 0.00 58 1002.6
20260505030554 71 114 0.0 0.0 0.00 0.00 0.00 58 1002.6
20260505030049 72 114 0.0 0.0 0.00 0.00 0.00 57 1002.5
20260505025545 72 114 0.0 0.0 0.00 0.00 0.00 57 1002.4
20260505025045 72 114 0.0 0.0 0.00 0.00 0.00 56 1002.6
20260505024541 72 114 0.0 0.0 0.00 0.00 0.00 56 1002.4
20260505024038 72 114 0.0 0.0 0.00 0.00 0.00 57 1002.6
20260505023535 72 114 0.0 0.0 0.00 0.00 0.00 56 1002.4
20260505023033 72 114 0.0 0.0 0.00 0.00 0.00 56 1002.6
20260505022530 73 114 0.0 0.0 0.00 0.00 0.00 56 1002.2
20260505022027 73 114 0.0 0.0 0.00 0.00 0.00 55 1001.9
20260505021524 73 114 0.0 0.0 0.00 0.00 0.00 55 1002.0
20260505021020 73 114 0.0 0.0 0.00 0.00 0.00 55 1001.9
20260505020514 73 114 0.0 0.0 0.00 0.00 0.00 54 1002.0
20260505020012 74 114 0.0 0.0 0.00 0.00 0.00 54 1001.6
20260505015509 74 114 0.0 0.0 0.00 0.00 0.00 54 1002.0
20260505015006 74 114 0.0 0.0 0.00 0.00 0.00 54 1001.6
20260505014503 74 114 0.0 0.0 0.00 0.00 0.00 54 1001.6
20260505014000 73 114 0.0 0.0 0.00 0.00 0.00 55 1001.6
20260505013457 73 114 0.0 0.0 0.00 0.00 0.00 55 1001.4
20260505012954 73 114 0.0 0.0 0.00 0.00 0.00 55 1001.4
20260505012452 73 114 0.0 0.0 0.00 0.00 0.00 55 1001.4
20260505011949 74 114 0.0 0.0 0.00 0.00 0.00 55 1001.4
20260505011444 74 114 0.0 0.0 0.00 0.00 0.00 54 1001.3
20260505010942 75 114 0.0 0.0 0.00 0.00 0.00 54 1001.3
20260505010437 75 114 0.0 0.0 0.00 0.00 0.00 53 1001.0
20260505005933 75 114 0.0 0.0 0.00 0.00 0.00 52 1001.1
20260505005430 75 114 0.0 0.0 0.00 0.00 0.00 52 1001.1
20260505004928 76 114 0.0 0.0 0.00 0.00 0.00 52 1001.1
20260505004424 76 114 0.0 0.0 0.00 0.00 0.00 51 1001.0
20260505003922 77 114 0.0 0.0 0.00 0.00 0.00 51 1000.9
20260505003419 77 114 0.0 0.0 0.00 0.00 0.00 50 1000.8
20260505002915 78 114 0.0 0.0 0.00 0.00 0.00 48 1000.8
20260505002411 78 114 0.0 0.0 0.00 0.00 0.00 48 1000.7
20260505001910 78 115 0.0 0.0 0.00 0.00 0.00 47 1001.0
20260505001407 78 115 0.0 0.0 0.00 0.00 0.00 47 1000.8
20260505000904 79 112 0.0 0.0 0.00 0.00 0.00 46 1000.8
20260505000402 79 111 0.0 0.0 0.00 0.00 0.00 45 1000.9
20260504235858 79 115 0.0 0.0 0.00 0.00 0.00 46 1000.8
20260504235355 79 124 0.0 0.0 0.00 0.00 0.00 46 1001.0
20260504234851 79 117 0.0 0.0 0.00 0.00 0.00 47 1001.1
20260504234349 79 116 0.0 0.0 0.00 0.00 0.00 46 1000.9
20260504233846 79 114 0.0 0.0 0.00 0.00 0.00 45 1000.8
20260504233341 79 132 0.9 1.7 0.00 0.00 0.00 46 1001.1
20260504232838 79 119 0.0 1.7 0.00 0.00 0.00 46 1001.0
20260504232336 79 116 0.9 1.7 0.00 0.00 0.00 47 1000.8
20260504231832 79 116 0.0 1.7 0.00 0.00 0.00 47 1000.8
20260504231329 80 162 0.9 1.7 0.00 0.00 0.00 47 1000.9
20260504230825 80 102 0.0 2.6 0.00 0.00 0.00 46 1001.0
20260504230323 80 85 1.7 2.6 0.00 0.00 0.00 46 1001.0
20260504225822 80 134 0.9 2.6 0.00 0.00 0.00 45 1000.9
20260504225317 80 95 0.0 0.9 0.00 0.00 0.00 46 1001.2
20260504224815 81 115 0.0 0.9 0.00 0.00 0.00 45 1000.9
20260504224312 81 185 0.9 1.7 0.00 0.00 0.00 44 1001.1
20260504223808 81 161 0.0 0.9 0.00 0.00 0.00 42 1000.8
20260504223304 81 205 1.7 1.7 0.00 0.00 0.00 43 1000.8
20260504222801 81 229 2.6 5.2 0.00 0.00 0.00 41 1001.0
20260504222258 82 120 1.7 2.6 0.00 0.00 0.00 38 1001.1
20260504221755 82 224 0.0 1.7 0.00 0.00 0.00 38 1000.9
20260504221252 82 178 0.9 2.6 0.00 0.00 0.00 38 1001.0
20260504220749 82 238 3.5 4.3 0.00 0.00 0.00 38 1001.0
20260504220246 82 148 0.9 1.7 0.00 0.00 0.00 39 1001.0
20260504215743 82 228 1.7 2.6 0.00 0.00 0.00 38 1001.0
20260504215240 82 198 1.7 2.6 0.00 0.00 0.00 38 1001.0
20260504214736 82 223 1.7 2.6 0.00 0.00 0.00 38 1001.0
20260504214232 82 187 0.9 1.7 0.00 0.00 0.00 36 1000.9
20260504213729 82 230 4.3 4.3 0.00 0.00 0.00 36 1001.1
20260504213226 82 202 0.9 2.6 0.00 0.00 0.00 37 1000.9
20260504212723 83 216 0.9 2.6 0.00 0.00 0.00 38 1001.0
20260504212219 82 181 0.9 2.6 0.00 0.00 0.00 37 1001.1
20260504211717 82 223 1.7 1.7 0.00 0.00 0.00 36 1001.2
20260504211213 82 220 0.9 1.7 0.00 0.00 0.00 36 1001.2
20260504210710 82 88 0.0 1.7 0.00 0.00 0.00 36 1001.2
20260504210207 83 199 0.0 1.7 0.00 0.00 0.00 37 1001.2
20260504205704 84 228 3.5 4.3 0.00 0.00 0.00 35 1001.0
20260504205201 83 168 0.9 2.6 0.00 0.00 0.00 36 1001.1
20260504204700 83 162 1.7 2.6 0.00 0.00 0.00 37 1001.3
20260504204158 83 246 2.6 5.2 0.00 0.00 0.00 38 1001.3
20260504203657 83 193 0.9 1.7 0.00 0.00 0.00 39 1001.5
20260504203154 83 181 0.0 2.6 0.00 0.00 0.00 40 1001.4
20260504202648 83 222 1.7 2.6 0.00 0.00 0.00 36 1001.5
20260504202146 83 35 0.9 1.7 0.00 0.00 0.00 37 1001.6
20260504201643 83 240 1.7 1.7 0.00 0.00 0.00 37 1001.6
20260504201140 83 206 1.7 2.6 0.00 0.00 0.00 38 1001.5
20260504200637 82 253 1.7 2.6 0.00 0.00 0.00 41 1001.5
20260504200134 83 108 0.0 2.6 0.00 0.00 0.00 40 1001.7
20260504195630 83 199 2.6 4.3 0.00 0.00 0.00 39 1001.5
20260504195126 82 352 0.9 1.7 0.00 0.00 0.00 39 1001.7
20260504194623 82 246 1.7 2.6 0.00 0.00 0.00 40 1001.8
20260504194119 82 172 1.7 4.3 0.00 0.00 0.00 42 1001.8
20260504193615 81 156 2.6 4.3 0.00 0.00 0.00 43 1001.6
20260504193114 81 236 3.5 5.2 0.00 0.00 0.00 43 1001.5
20260504192612 81 251 0.9 4.3 0.00 0.00 0.00 41 1001.8
20260504192109 81 270 1.7 2.6 0.00 0.00 0.00 43 1001.8
20260504191608 81 249 2.6 5.2 0.00 0.00 0.00 42 1001.7
20260504191103 80 187 1.7 2.6 0.00 0.00 0.00 42 1001.5
20260504190600 80 258 1.7 5.2 0.00 0.00 0.00 40 1001.6
20260504190056 81 199 0.0 4.3 0.00 0.00 0.00 43 1001.6
20260504185553 80 198 0.0 1.7 0.00 0.00 0.00 44 1001.9
20260504185050 80 273 1.7 2.6 0.00 0.00 0.00 45 1001.8
20260504184545 79 216 1.7 2.6 0.00 0.00 0.00 44 1001.9
20260504184040 81 218 3.5 4.3 0.00 0.00 0.00 43 1001.7
20260504183538 80 61 0.0 2.6 0.00 0.00 0.00 43 1001.8
20260504183036 80 193 2.6 2.6 0.00 0.00 0.00 44 1002.0
20260504182532 79 113 0.0 1.7 0.00 0.00 0.00 45 1002.0
20260504182030 79 132 0.9 1.7 0.00 0.00 0.00 46 1001.8
20260504181527 79 221 3.5 4.3 0.00 0.00 0.00 47 1002.3
20260504181026 79 223 2.6 2.6 0.00 0.00 0.00 45 1001.9
20260504180524 79 160 0.9 1.7 0.00 0.00 0.00 45 1002.2
20260504180022 79 308 1.7 2.6 0.00 0.00 0.00 45 1002.2
20260504175519 78 145 0.9 2.6 0.00 0.00 0.00 46 1002.4
20260504175016 78 137 4.3 7.0 0.00 0.00 0.00 46 1002.5
20260504174514 78 31 0.9 1.7 0.00 0.00 0.00 46 1002.2
20260504174011 77 177 0.9 4.3 0.00 0.00 0.00 46 1002.4
20260504173507 77 326 1.7 2.6 0.00 0.00 0.00 48 1002.6
20260504173005 77 105 1.7 2.6 0.00 0.00 0.00 47 1002.5
20260504172501 77 262 1.7 2.6 0.00 0.00 0.00 46 1002.5
20260504171957 77 239 2.6 5.2 0.00 0.00 0.00 46 1002.7
20260504171454 77 120 0.9 1.7 0.00 0.00 0.00 47 1002.8
20260504170951 76 109 0.0 2.6 0.00 0.00 0.00 47 1002.6
20260504170447 75 220 1.7 1.7 0.00 0.00 0.00 48 1002.7
20260504160407 74 219 0.0 2.6 0.00 0.00 0.00 50 1002.8
20260504150831 71 148 1.7 4.3 0.00 0.00 0.00 51 1002.8
20260504150328 71 230 2.6 4.3 0.00 0.00 0.00 52 1003.1
20260504141258 68 188 1.7 4.3 0.00 0.00 0.00 56 1003.1
20260504140754 68 129 2.6 4.3 0.00 0.00 0.00 55 1003.2
20260504140250 68 210 2.6 2.6 0.00 0.00 0.00 56 1003.2